www.pogodaiklimat.ru

Погода и климат >> Архив погоды >> Австрия >> Вольфсегг-ам-Хаусрукк


ПОГОДА в Вольфсегг-ам-Хаусрукке

  • Прогноз погоды в Вольфсегг-ам-Хаусрукке
  • Монитор погоды в Вольфсегг-ам-Хаусрукке

АРХИВ ПОГОДЫ в Вольфсегг-ам-Хаусрукке

Время (UTC), дата Ветер
(напр.,м/с)
 
Видим.   Явления Облачность Т
(С)
Тd
(С)
f
(%)
Тe
(С)
Тes
(С)
Комфортность P
(гПа)
Po
(гПа)
Тmin
(С)
Tmax
(С)
R
(мм)
R24
(мм)
S
(см)
10 13.08 З 1 н/о н/о +15.9 +13.0 83 +17 +17 1019.2 948.5
11 13.08 СЗ 1 н/о н/о +16.8 +12.4 75 +18 +18 1018.6 948.1
12 13.08 З 1 н/о н/о +16.9 +11.7 71 +18 +18 1018.2 947.8 0.0
13 13.08 СЗ 1 н/о н/о +17.2 +11.4 69 +18 +18 1017.7 947.4
14 13.08 З 1 н/о н/о +17.1 +11.7 71 +18 +18 1017.8 947.4
15 13.08 З 1 н/о н/о +17.2 +12.3 73 +18 +18 1017.0 946.7
16 13.08 Ю 1 н/о н/о +16.8 +12.3 75 +18 +18 1016.8 946.5
17 13.08 штиль 0 н/о н/о +16.1 +12.6 80 +16 +16 1017.0 946.5 0.0
18 13.08 СЗ 1 н/о осадки н/о +14.3 +13.0 92 +15 +15 1017.9 946.9 +14.2 +18.1 0.3
19 13.08 СЗ 2 н/о осадки н/о +12.7 +12.2 97 +12 +12 1019.5 948.0 3
20 13.08 СЗ 2 н/о осадки н/о +12.0 +11.5 97 +11 +11 1019.7 948.0 3
21 13.08 СЗ 1 н/о в посл. час осадки н/о +11.7 +11.4 98 +11 +11 1019.6 947.8 7
22 13.08 З 1 н/о ливневой дождь н/о +11.6 +11.4 99 +11 +11 1019.9 948.1 0.3
23 13.08 СЗ 1 н/о в посл. час осадки н/о +11.6 +11.4 99 +11 +11 1019.6 947.8 0.1
00 14.08 З 2 н/о {ливн. осадки} н/о +11.6 +11.0 96 +10 +10 1019.2 947.4 8
01 14.08 З 1 н/о в посл. час осадки н/о +11.7 +11.0 95 +11 +11 1019.1 947.4 0.0
02 14.08 З 1 н/о в посл. час осадки н/о +11.6 +11.2 97 +11 +11 1019.3 947.5 0.1
03 14.08 З 2 н/о {ливн. осадки} н/о +11.8 +11.2 96 +11 +11 1019.1 947.4 0.1
04 14.08 З 1 н/о н/о +11.8 +11.2 96 +12 +12 1019.2 947.5
05 14.08 З 1 н/о н/о +12.1 +11.3 95 +12 +12 1019.6 947.9
06 14.08 З 1 н/о {ливн. осадки} н/о +12.1 +11.2 94 +12 +12 1019.8 948.1 +11.6 +14.5 8
07 14.08 З 1 н/о н/о +12.7 +11.4 92 +13 +13 1020.0 948.4
08 14.08 СЗ 2 н/о н/о +13.9 +10.7 81 +13 +13 1019.8 948.5
09 14.08 СЗ 1 н/о н/о +15.2 +11.2 77 +16 +16 1019.6 948.7
10 14.08 СЗ 2 н/о н/о +16.0 +9.2 64 +16 +16 1019.2 948.4
11 14.08 З 2 н/о н/о +17.0 +8.8 58 +17 +17 1018.7 948.2
12 14.08 З 2 н/о н/о +16.4 +9.6 64 +17 +17 1018.8 948.2
13 14.08 СЗ 2 н/о н/о +18.1 +8.3 53 +19 +19 1018.1 947.9
14 14.08 СЗ 2 н/о н/о +18.1 +7.8 51 +19 +19 1017.8 947.6
15 14.08 СЗ 1 н/о н/о +19.2 +7.9 48 +21 +21 комфорт 1017.2 947.3 0.0
16 14.08 З 2 н/о н/о +18.1 +8.5 53 +19 +19 1017.2 947.0
17 14.08 СЗ 1 н/о н/о +18.1 +8.3 53 +19 +19 1017.0 946.9
18 14.08 СЗ 1 н/о н/о +16.9 +8.6 58 +18 +18 1017.4 947.0 +12.1 +19.3 0.0
19 14.08 СЗ 1 н/о н/о +15.7 +7.6 59 +16 +16 1018.2 947.4
20 14.08 СЗ 1 н/о н/о +15.4 +7.4 59 +16 +16 1018.5 947.6
21 14.08 СЗ 1 н/о н/о +14.9 +7.3 60 +16 +16 1018.5 947.5
22 14.08 СЗ 1 н/о н/о +14.8 +7.3 61 +15 +15 1018.4 947.4
23 14.08 З 1 н/о н/о +14.0 +7.4 64 +14 +14 1018.6 947.4
00 15.08 СЗ 1 н/о н/о +13.8 +7.8 67 +14 +14 1018.4 947.1
01 15.08 СЗ 1 н/о н/о +13.9 +7.6 66 +14 +14 1017.9 946.7
02 15.08 З 1 н/о н/о +13.9 +7.3 64 +14 +14 1017.5 946.3
03 15.08 З 1 н/о н/о +13.4 +7.2 66 +14 +14 1017.1 945.8
04 15.08 Ю 1 н/о н/о +12.7 +7.8 72 +13 +13 1017.2 945.8
05 15.08 Ю 1 н/о н/о +13.0 +9.1 77 +13 +13 1017.1 945.8
06 15.08 В 1 н/о н/о +13.0 +8.7 75 +13 +13 1016.7 945.4 +12.2 +17.3
07 15.08 ЮВ 3 н/о н/о +14.0 +8.9 71 +13 +13 1016.2 945.2
08 15.08 ЮВ 2 н/о н/о +15.6 +8.9 64 +16 +16 1015.7 945.1
09 15.08 ЮВ 2 н/о н/о +17.0 +10.0 63 +17 +17 1015.1 944.9
10 15.08 ЮВ 2 н/о н/о +18.5 +10.1 58 +19 +19 1014.4 944.6
11 15.08 Ю 2 н/о н/о +19.7 +9.8 53 +21 +21 комфорт 1013.9 944.4
12 15.08 З 1 н/о н/о +21.5 +11.1 52 +23 +23 комфорт 1013.1 944.1 0.0
13 15.08 СЗ 2 н/о н/о +21.6 +8.9 44 +23 +23 комфорт 1013.2 944.1
14 15.08 З 2 н/о н/о +19.9 +10.6 55 +22 +22 комфорт 1013.9 944.4
15 15.08 З 2 н/о в посл. час осадки н/о +17.3 +11.0 66 +18 +18 1014.8 944.7 0.1
16 15.08 З 2 н/о н/о +18.2 +10.5 61 +19 +19 1014.4 944.5 0.0
17 15.08 З 1 н/о н/о +18.2 +11.4 64 +20 +20 1014.3 944.4
18 15.08 З 1 н/о {осадки} н/о +16.9 +11.4 70 +18 +18 1014.9 944.7 +12.6 +22.2 0.1
19 15.08 З 1 н/о н/о +15.7 +11.1 74 +16 +16 1015.8 945.2
20 15.08 З 1 н/о н/о +15.7 +11.3 75 +16 +16 1015.9 945.3
21 15.08 З 3 н/о н/о +16.6 +11.7 73 +16 +16 1015.9 945.6
22 15.08 З 3 н/о н/о +16.2 +11.7 75 +16 +16 1016.5 946.0 0.0
23 15.08 З 3 н/о н/о +15.8 +11.4 75 +15 +15 1016.9 946.3
00 16.08 З 3 н/о н/о +14.8 +11.9 83 +14 +14 1017.4 946.5 0.0
01 16.08 З 3 н/о ливневой дождь н/о +13.6 +12.4 92 +12 +12 1017.9 946.7 1
02 16.08 З 3 н/о в посл. час осадки н/о +13.3 +12.4 94 +12 +12 1018.3 947.0 0.2
03 16.08 З 2 н/о {ливн. осадки} н/о +13.3 +12.2 93 +13 +13 1018.3 947.0 2
04 16.08 З 3 н/о н/о +13.4 +12.1 92 +12 +12 1018.7 947.4 0.0
05 16.08 З 2 н/о н/о +13.6 +11.9 89 +13 +13 1018.8 947.6
06 16.08 З 2 н/о в посл. час осадки {ливн. осадки} н/о +12.9 +12.3 96 +12 +12 1019.4 948.0 +12.7 +17.1 4
07 16.08 З 2 н/о в посл. час осадки н/о +13.6 +12.6 94 +13 +13 1019.5 948.2 0.1
08 16.08 З 2 н/о н/о +14.0 +12.6 91 +13 +13 1019.8 948.6
09 16.08 З 2 н/о {осадки} н/о +15.5 +12.3 81 +15 +15 1019.5 948.7 0.1
10 16.08 З 2 н/о н/о +15.9 +12.7 81 +16 +16 1019.3 948.6 0.0
11 16.08 З 3 н/о н/о +17.6 +11.7 68 +18 +18 1018.3 948.0 0.0
12 16.08 З 3 н/о {осадки} н/о +18.6 +11.0 61 +19 +19 1017.8 947.8 0.1
13 16.08 З 3 н/о н/о +18.8 +10.4 58 +20 +20 1017.4 947.4
14 16.08 СЗ 2 н/о н/о +19.2 +10.4 57 +21 +21 комфорт 1016.9 947.1
15 16.08 З 2 н/о н/о +20.0 +10.4 54 +22 +22 комфорт 1016.5 946.9
16 16.08 СЗ 1 н/о н/о +20.1 +10.4 54 +23 +23 комфорт 1016.3 946.7
17 16.08 СЗ 1 н/о н/о +19.4 +10.2 55 +22 +22 комфорт 1016.3 946.5
18 16.08 штиль 0 н/о н/о +17.9 +9.7 59 +18 +18 1016.6 946.5 +12.8 +20.5 0.1
19 16.08 СЗ 1 н/о н/о +17.2 +9.4 60 +18 +18 1017.0 946.7
20 16.08 ЮЗ 1 н/о н/о +17.5 +8.9 57 +19 +19 1017.2 946.9
21 16.08 ЮВ 1 н/о н/о +17.0 +9.1 60 +18 +18 1017.0 946.6
22 16.08 ЮВ 1 н/о н/о +16.5 +9.3 62 +17 +17 1017.0 946.5
23 16.08 ЮВ 2 н/о н/о +16.3 +9.2 63 +16 +16 1016.4 945.9
00 17.08 ЮВ 1 н/о н/о +16.2 +9.1 63 +17 +17 1016.1 945.6 0.0
01 17.08 В 2 н/о н/о +16.0 +8.8 62 +16 +16 1015.7 945.2
02 17.08 С 1 н/о н/о +13.4 +9.1 75 +14 +14 1016.3 945.1
03 17.08 В 2 н/о н/о +12.6 +9.8 83 +12 +12 1016.3 944.9
04 17.08 В 2 н/о н/о +12.4 +9.6 83 +11 +11 1016.6 945.2
05 17.08 ЮВ 3 н/о н/о +13.1 +9.4 78 +12 +12 1016.5 945.2
06 17.08 Ю 1 н/о н/о +13.4 +9.7 78 +14 +14 1016.4 945.2 +11.8 +18.2 0.0
07 17.08 ЮВ 2 н/о н/о +14.1 +10.1 77 +14 +14 1016.5 945.5
08 17.08 В 2 н/о н/о +16.6 +11.4 71 +17 +17 1015.7 945.4
09 17.08 ЮЗ 1 н/о н/о +19.0 +11.3 61 +21 +21 комфорт 1015.1 945.4
10 17.08 В 2 н/о н/о +18.8 +12.8 68 +20 +20 1015.2 945.4
11 17.08 В 2 н/о н/о +21.3 +14.0 63 +24 +24 комфорт 1014.0 944.9
12 17.08 ЮЗ 1 н/о н/о +22.9 +12.4 52 +26 +26 жарко 1013.4 944.7
13 17.08 В 2 н/о н/о +22.4 +14.5 61 +26 +26 жарко 1013.3 944.5
14 17.08 ЮВ 2 н/о н/о +22.0 +14.5 62 +25 +25 комфорт 1013.2 944.3
15 17.08 В 2 н/о н/о +22.6 +14.6 61 +26 +26 жарко 1012.8 944.1
16 17.08 В 1 н/о н/о +22.2 +14.1 60 +25 +25 комфорт 1012.9 944.1
17 17.08 В 3 н/о н/о +21.4 +13.8 62 +24 +24 комфорт 1012.6 943.6
18 17.08 В 3 н/о н/о +21.0 +13.5 62 +24 +24 комфорт 1012.7 943.6 +13.4 +23.3
19 17.08 В 1 н/о н/о +20.7 +13.7 64 +24 +24 комфорт 1013.0 943.8
20 17.08 СЗ 1 н/о н/о +20.9 +13.0 61 +25 +25 комфорт 1012.8 943.7 0.0
21 17.08 З 1 н/о н/о +20.5 +11.7 57 +24 +24 комфорт 1012.7 943.5 0.0
22 17.08 СЗ 1 н/о н/о +19.6 +11.2 58 +22 +22 комфорт 1013.0 943.5
23 17.08 СЗ 1 н/о н/о +19.8 +11.5 59 +22 +22 комфорт 1012.9 943.5
00 18.08 СЗ 1 н/о н/о +20.1 +10.0 52 +23 +23 комфорт 1013.1 943.7 0.0
01 18.08 штиль 0 н/о н/о +19.0 +10.6 58 +20 +20 1013.2 943.6
02 18.08 Ю 1 н/о н/о +19.2 +10.5 57 +21 +21 комфорт 1012.8 943.2
03 18.08 В 2 н/о н/о +18.3 +10.9 62 +19 +19 1012.0 942.3
04 18.08 В 2 н/о н/о +17.8 +12.0 69 +18 +18 1012.1 942.3
05 18.08 ЮВ 2 н/о н/о +17.8 +12.0 69 +18 +18 1012.1 942.3
06 18.08 ЮВ 1 н/о н/о +18.6 +12.0 65 +20 +20 1012.1 942.5 +17.7 +21.3 0.0
07 18.08 В 1 н/о н/о +20.7 +12.8 61 +24 +24 комфорт 1011.5 942.4
08 18.08 ЮЗ 1 н/о н/о +22.3 +13.6 58 +25 +25 комфорт 1011.4 942.7
09 18.08 Ю 1 н/о н/о +25.0 +15.2 55 +28 +28 жарко 1010.7 942.7
10 18.08 З 1 н/о н/о +26.7 +13.8 45 +29 +29 жарко 1010.2 942.6
11 18.08 Ю 1 н/о н/о +28.6 +13.1 38 +30 +30 жарко 1009.6 942.4
12 18.08 С 1 н/о н/о +29.7 +12.7 35 +31 +31 жарко 1009.3 942.3
13 18.08 ЮЗ 1 н/о н/о +29.8 +10.8 31 +30 +30 жарко 1009.1 942.1
14 18.08 ЮВ 2 н/о н/о +29.9 +12.6 35 +31 +31 жарко 1008.7 941.8
15 18.08 В 2 н/о н/о +30.0 +11.7 32 +31 +31 жарко 1008.2 941.4
16 18.08 В 4 н/о н/о +29.1 +13.0 37 +30 +30 жарко 1008.4 941.4
17 18.08 В 2 н/о н/о +28.1 +14.0 42 +30 +30 жарко 1008.5 941.3
18 18.08 В 2 н/о н/о +27.4 +13.7 43 +29 +29 жарко 1008.5 941.1 +18.5 +30.7
19 18.08 В 2 н/о н/о +26.6 +13.5 44 +29 +29 жарко 1008.6 941.0
20 18.08 В 3 н/о н/о +25.5 +14.4 50 +28 +28 жарко 1008.8 941.0
21 18.08 В 3 н/о н/о +25.6 +13.5 47 +28 +28 жарко 1008.6 940.8
22 18.08 В 2 н/о н/о +26.2 +12.5 43 +28 +28 жарко 1008.6 940.9
23 18.08 В 3 н/о н/о +23.8 +14.5 56 +26 +26 жарко 1008.6 940.5
00 19.08 СЗ 2 н/о н/о +22.2 +14.0 60 +25 +25 комфорт 1009.8 941.2
01 19.08 СЗ 2 н/о н/о +22.4 +13.9 59 +26 +26 жарко 1010.7 942.1
02 19.08 З 3 н/о н/о +21.4 +14.1 63 +24 +24 комфорт 1012.8 943.8
03 19.08 СЗ 6
{16}
н/о н/о +20.0 +14.5 71 +22 +22 комфорт 1014.6 945.2
04 19.08 СЗ 4
{13}
н/о н/о +18.3 +13.4 73 +19 +19 1016.8 946.8 0.0
05 19.08 З 1 н/о н/о +17.9 +13.4 75 +19 +19 1017.2 947.1 0.0
06 19.08 З 1
{16}
н/о н/о +17.6 +14.3 81 +19 +19 1017.6 947.4 +17.6 +27.7 0.0
07 19.08 З 1 н/о н/о +18.2 +14.6 80 +20 +20 1017.4 947.4
08 19.08 З 1 н/о н/о +19.5 +13.7 69 +22 +22 комфорт 1016.8 947.1
09 19.08 З 1 н/о н/о +21.1 +13.0 60 +23 +23 комфорт 1017.0 947.6
10 19.08 З 2 н/о н/о +22.9 +13.5 55 +26 +26 жарко 1016.7 947.8
11 19.08 СЗ 1 н/о н/о +22.4 +13.7 58 +26 +26 жарко 1016.6 947.6
12 19.08 СЗ 1 н/о н/о +21.5 +14.4 64 +24 +24 комфорт 1016.8 947.6
13 19.08 СЗ 1 н/о н/о +21.2 +14.3 65 +24 +24 комфорт 1017.2 947.9
14 19.08 СЗ 1 н/о н/о +20.9 +15.0 69 +25 +25 комфорт 1017.4 948.0 0.0
15 19.08 СЗ 1 н/о н/о +21.0 +14.6 67 +25 +25 комфорт 1017.1 947.8 0.0
16 19.08 ЮВ 2 н/о н/о +20.9 +15.1 69 +25 +25 комфорт 1017.0 947.7
17 19.08 ЮВ 1 н/о н/о +20.5 +15.9 75 +25 +25 комфорт 1017.0 947.6
18 19.08 ЮВ 2 н/о н/о +19.8 +15.4 76 +23 +23 комфорт 1017.3 947.7 +17.6 +22.9 0.0
19 19.08 В 1 н/о н/о +19.1 +15.3 79 +22 +22 комфорт 1018.4 948.6
20 19.08 В 1 н/о н/о +18.7 +14.8 78 +21 +21 комфорт 1018.8 948.8
21 19.08 В 2 н/о н/о +18.5 +14.7 79 +20 +20 1018.9 948.9
22 19.08 В 2 н/о н/о +18.7 +14.8 78 +20 +20 1018.8 948.8
23 19.08 штиль 0 н/о н/о +18.3 +14.5 79 +19 +19 1019.1 949.0
00 20.08 СВ 1 н/о н/о +19.0 +13.8 72 +21 +21 комфорт 1018.6 948.7
01 20.08 В 2 н/о н/о +17.0 +14.2 84 +17 +17 1018.9 948.5
02 20.08 В 1 н/о н/о +16.8 +15.2 90 +18 +18 1019.2 948.8
03 20.08 СЗ 1 н/о н/о +16.2 +14.4 89 +17 +17 1019.8 949.2
04 20.08 СЗ 1 н/о н/о +17.2 +14.5 84 +18 +18 1020.0 949.6
05 20.08 штиль 0 н/о н/о +16.7 +14.6 87 +17 +17 1020.1 949.6
06 20.08 ЮВ 1 н/о н/о +17.9 +15.2 84 +19 +19 1019.5 949.3 +15.7 +20.0
07 20.08 В 2 н/о н/о +18.5 +15.3 82 +20 +20 1019.1 949.1
08 20.08 В 2 н/о н/о +19.5 +15.5 78 +22 +22 комфорт 1018.9 949.1
09 20.08 В 3 н/о н/о +21.6 +16.2 71 +25 +25 комфорт 1018.3 949.1 0.0
10 20.08 СВ 2 н/о н/о +22.6 +16.2 67 +27 +27 душно 1017.8 948.8 0.0

 

Местоположение метеостанции Вольфсегг-ам-Хаусрукк (Австрия): широта 48.10 долгота 13.67 высота над уровнем моря 619 м.

В архиве по умолчанию представлена погода в Вольфсегг-ам-Хаусрукке за последнюю неделю. Архивные данные за месяц целиком и за предыдущие месяцы, начиная с января 2011 года, Вы можете получить, выбрав интересующий диапазон дат из раскрывающегося списка и нажав кнопку "Ввод!".


*Определитесь, кто Вы:
робот инопланетянин человек

Внимание! Время в таблицах - всемирное. Для получения местного времени необходимо прибавить поправку, которая равна 1 ч.

Смотрите также архив погоды в соседних городах и на ближайших метеорологических станциях:

Погода в Рид-им-Иннкрайсе (Австрия) (19 км)
Погода в Франкенмаркте (Австрия) (22 км)
Погода в Гмундене (Австрия) (24 км)
Погода в Вельс / Шлайсхайм (Австрия) (31 км)
Погода в Фойеркогеле (Австрия) (31 км)
Погода в Кремсмюнстере (Австрия) (35 км)
Погода в Мондзе (Австрия) (36 км)
Погода в Линце (Австрия) (41 км)
Погода в Санкт-Вольфганге (Австрия) (44 км)
Погода в Маттзе (Австрия) (44 км)

Пояснения к столбцам:

Ветер - указаны скорость ветра в м/с - средняя за 10 мин, порывы в срок и между сроками (в фигурных скобках) и направление, откуда дует ветер: С - северный, СВ - северо-восточный, В - восточный, ЮВ - юго-восточный, Ю - южный, ЮЗ - юго-западный, З - западный, СЗ - северо-западный.
Видимость - горизонтальная дальность видимости в метрах или километрах. При видимости от 1 до 10 км при отсутствии осадков обычно наблюдается дымка, при ухудшении видимости до 1 км и менее - туман. В сухую погоду видимость может ухудшаться дымом, пылью или мглою.
Явления - указаны атмосферные явления, наблюдавшиеся в срок или в последний час перед сроком; фигурными скобками обозначены явления, наблюдавшиеся между сроками (за 1-3 часа до срока); квадратными скобками обозначены град или гололедные отложения с указанием их диаметра в мм.
Облачность - указаны через наклонную черту общая и нижняя облачность в баллах и высота нижней границы облаков в метрах; квадратными скобками обозначены формы облаков: Ci - перистые, Cs - перисто-слоистые, Cc - перисто-кучевые, Ac - высококучевые, As - высокослоистые, Sc - слоисто-кучевые, Ns - слоисто-дождевые, Cu - кучевые, Cb - кучево-дождевые. Подробнее классификацию облаков см. в Атласе облаков (PDF).
T - Температура воздуха - температура, измеренная на высоте 2 м над землей.
Td - Температура точки росы - температура, при понижении до которой содержащийся в воздухе водяной пар достигнет насыщения.
f - Относительная влажность воздуха - влажноcть воздуха, измеренная на высоте 2 м над землей.
Te - Эффективная температура - температура, которую ощущает одетый по сезону человек в тени. Характеристика душности погоды. При расчете учитывается влияние влажности воздуха и скорости ветра на теплоощущения человека.
Tes - Эффективная температура на солнце - температура, которую ощущает человек, с поправкой на солнечный нагрев. Характеристика знойности погоды. Зависит от высоты солнца над горизонтом, облачности и скорости ветра. Ночью, в пасмурную погоду, а также при ветре 12 м/с и более поправка равна нулю.
P - Атмосферное давление - приведенное к уровню моря атмосферное давление.
Po - Атмосферное давление - измеренное на уровне метеостанции атмосферное давление.
Tmin - Минимальная температура - минимум температуры воздуха на высоте 2 м над землей.
Tmax - Максимальная температура - максимум температуры воздуха на высоте 2 м над землей.
R - Количество осадков - Количество выпавших осадков за период времени, мм. При наведении курсора мыши на число - период времени, за который выпало указанное количество осадков.
R24 - Количество осадков - Количество выпавших осадков за 24 часа, мм.
S - Снежный покров - Высота снежного покрова, см. При наведении курсора мыши на число - состояние снежного покрова и степень покрытия местности в баллах.